User: anonymous   Login
Location: Sungai Laei
(2.6000°N, 113.7167°E)
Time: 05:14:14
(UTC+00:00)
Language:

Lacrosse 4 Rocket - Orbit

View from above orbital plane
View from above orbital plane
View from above satellite
View from above satellite

Ground track
Ground track

The orbit data is extracted from the following two-line orbital elements,

1 26474U 00047B   22222.56341442  .00001080  00000-0  10190-3 0  9996
2 26474  67.9927  76.3194 0051113  52.1951 308.3803 14.96979158196548
Epoch (UTC): 10 August 2022 13:31:19
Eccentricity: 0.0051113
inclination: 67.9927°
perigee height: 540 km
apogee height: 612 km
right ascension of ascending node: 76.3194°
argument of perigee: 52.1951°
revolutions per day: 14.96979158
mean anomaly at epoch: 308.3803°
orbit number at epoch: 19654

The dashed part of the orbit path shows where the satellite is in the earth's shadow,  

DLR